Terminal Aerodrome Forecast
Issued by NWS

Home | Current Version | Previous Version | Text Only | Print | Product List | Glossary On
Versions: 1 2 3 4 5 6 7 8 9 10 11 12 13 14 15 16 17 18 19 20 21 22 23 24 25
000
FTUS45 KSLC 180052 AAA
TAFENV
TAF AMD
KENV 180052Z 1801/1824 24015G27KT P6SM VCSH BKN130
     FM180200 22008KT P6SM BKN120
     FM180600 VRB04KT P6SM FEW100 BKN120
     FM181500 15010KT P6SM BKN100
      AMD LTD TO CLD VIS AND WIND=

USA.gov is the U.S. government's official web portal to all federal, state and local government web resources and services.